Погода в Липени

Беларусь     53°24′46″N   28°49′35″E
темп.,
°C
ветер,
м/с
пор.,
м/с
влажн.,
%
обл.,
%
осадки,
мм/ч
давл.,
гПа
погр.,
м
6 марта, сб
сб600:00−5сз12580 0.0 102122
03:00−5зюз23636 0.0 102264
06:00−5з369386 0.3 1021350
09:00−5зсз369093 0.9 1022393
12:00−2ссз4670100 0.1 10231047
15:00−1сз465365 0.1 10231433
18:00−3з48640 0.0 1022669
21:00−5зюз411751 0.0 1021435
7 марта, вс
вс700:00−4зюз6147215 0.0 1018610
03:00−2зюз7156855 0.0 1014804
06:00−2зюз81677100 0.0 10101046
09:00−1зюз101881100 0.1 10061270
12:00+1зюз101880100 0.1 10051322
15:000зсз81396100 1.3 1005829
18:000зсз61276100 1.1 10051270
21:00−2з51279100 1.1 1006763
8 марта, пн
пн800:00−3зсз5127459 0.0 1005828
03:00−5зсз5127835 0.0 1006802
06:00−5зсз6127954 0.0 1006916
09:00−5сз597960 0.1 1010825
12:00−4сз576233 0.0 1012911
15:00−2зсз575317 0.0 10131337
18:00−3сз476658 0.0 10141045
21:00−4сз268179 0.0 1016335
9 марта, вт
вт900:00−6с268490 0.0 1017314
03:00−7ссз248481 0.0 1018440
06:00−8ссз2688100 0.0 1019329
09:00−8ссз368258 0.0 1021467
12:00−5ссз35610 0.0 1022887
15:00−4сз355616 0.0 10231082
18:00−4зсз346465 0.0 1022771
21:00−6з257837 0.0 1024145
10 марта, ср
ср1000:00−7зюз257924 0.0 1024145
03:00−7зюз378355 0.0 1023251
06:00−7зюз4978100 0.0 1022325
09:00−6зюз5973100 0.0 1022393
12:00−2з596296 0.0 1022619
15:000з585393 0.0 1021964
18:00−1зюз486279 0.0 1021763
21:00−3зюз4107285 0.0 1021430